User: anonymous   Login
Location: Unspecified
(0.0000°N, 0.0000°E)
Time: 19:01:27
(UTC+00:00)
Language:

OBJECT F - Orbit

View from above orbital plane
View from above orbital plane
View from above satellite
View from above satellite

Ground track
Ground track

The orbit data is extracted from the following two-line orbital elements,

1 43116U 18004F   19341.34785835  .00000838  00000-0  38155-4 0  9994
2 43116  97.4763  48.7472 0009706  13.7679 346.3821 15.23458608105634
Epoch (UTC): 07 December 2019 08:20:54
Eccentricity: 0.0009706
inclination: 97.4763°
perigee height: 489 km
apogee height: 502 km
right ascension of ascending node: 48.7472°
argument of perigee: 13.7679°
revolutions per day: 15.23458608
mean anomaly at epoch: 346.3821°
orbit number at epoch: 10563

The dashed part of the orbit path shows where the satellite is in the earth's shadow,  

DLR